• In Romania
  • List of Countries
  • For 7 days
  • Water Temperature
  • Satellite Maps
  • Weather Map
  • Weather Widgets
  • user-avatar
    Login

    Hourly Weather Batina

    Today, 19 November, Sunday

    Time Temperature Precipitation Wind Pressure Humidity
    00:00 +7°C° 0 mm 1 mps 671 mmHg 81%
    01:00 +7°C° 0 mm 1 mps 671 mmHg 80%
    02:00 +7°C° 0 mm 1 mps 671 mmHg 80%
    03:00 +6°C° 0 mm 1 mps 671 mmHg 79%
    04:00 +6°C° 0 mm 1 mps 671 mmHg 78%
    05:00 +6°C° 0 mm 1 mps 671 mmHg 77%
    06:00 +5°C° 0 mm 1 mps 671 mmHg 76%
    07:00 +7°C° 0 mm 1 mps 671 mmHg 69%
    08:00 +9°C° 0 mm 1 mps 672 mmHg 62%
    09:00 +10°C° 0 mm 1 mps 673 mmHg 55%
    10:00 +11°C° 0 mm 1 mps 673 mmHg 50%
    11:00 +12°C° 0 mm 2 mps 673 mmHg 46%
    12:00 +13°C° 0 mm 2 mps 673 mmHg 39%
    13:00 +13°C° 0 mm 2 mps 673 mmHg 38%
    14:00 +13°C° 0 mm 2 mps 673 mmHg 37%
    15:00 +14°C° 0 mm 2 mps 673 mmHg 36%
    16:00 +12°C° 0 mm 2 mps 673 mmHg 42%
    17:00 +11°C° 0 mm 1 mps 673 mmHg 48%
    18:00 +10°C° 0 mm 1 mps 672 mmHg 54%
    19:00 +9°C° 0 mm 1 mps 673 mmHg 57%
    20:00 +8°C° 0 mm 1 mps 673 mmHg 60%
    21:00 +8°C° 0 mm 1 mps 673 mmHg 63%
    22:00 +7°C° 0 mm 1 mps 673 mmHg 64%
    23:00 +7°C° 0 mm 1 mps 673 mmHg 66%

    Tomorrow, 20 November, Monday

    Time Temperature Precipitation Wind Pressure Humidity
    00:00 +7°C° 0 mm 1 mps 673 mmHg 67%
    01:00 +6°C° 0 mm 1 mps 673 mmHg 65%
    02:00 +6°C° 0 mm 1 mps 673 mmHg 63%
    03:00 +6°C° 0 mm 1 mps 672 mmHg 62%
    04:00 +6°C° 0 mm 1 mps 672 mmHg 58%
    05:00 +6°C° 0 mm 1 mps 673 mmHg 55%
    06:00 +5°C° 0 mm 1 mps 673 mmHg 52%
    07:00 +8°C° 0 mm 1 mps 674 mmHg 43%
    08:00 +10°C° 0 mm 1 mps 674 mmHg 35%
    09:00 +11°C° 0 mm 0 mps 675 mmHg 26%
    10:00 +13°C° 0 mm 1 mps 676 mmHg 24%
    11:00 +14°C° 0 mm 1 mps 676 mmHg 21%
    12:00 +15°C° 0 mm 1 mps 676 mmHg 18%
    13:00 +15°C° 0 mm 1 mps 676 mmHg 19%
    14:00 +15°C° 0 mm 1 mps 675 mmHg 19%
    15:00 +15°C° 0 mm 1 mps 675 mmHg 19%
    16:00 +13°C° 0 mm 1 mps 675 mmHg 24%
    17:00 +12°C° 0 mm 1 mps 674 mmHg 30%
    18:00 +9°C° 0 mm 0 mps 674 mmHg 35%
    19:00 +8°C° 0 mm 0 mps 674 mmHg 36%
    20:00 +8°C° 0 mm 0 mps 674 mmHg 37%
    21:00 +7°C° 0 mm 0 mps 674 mmHg 38%
    22:00 +8°C° 0 mm 1 mps 674 mmHg 38%
    23:00 +8°C° 0 mm 1 mps 674 mmHg 38%

    Day after tomorrow, 21 November, Tuesday

    Time Temperature Precipitation Wind Pressure Humidity
    00:00 +8°C° 0 mm 1 mps 674 mmHg 38%
    01:00 +8°C° 0 mm 1 mps 674 mmHg 39%
    02:00 +7°C° 0 mm 1 mps 673 mmHg 39%
    03:00 +7°C° 0 mm 1 mps 673 mmHg 39%
    04:00 +7°C° 0 mm 1 mps 673 mmHg 39%
    05:00 +7°C° 0 mm 1 mps 673 mmHg 39%
    06:00 +6°C° 0 mm 1 mps 673 mmHg 39%
    07:00 +8°C° 0 mm 1 mps 674 mmHg 34%
    08:00 +11°C° 0 mm 1 mps 674 mmHg 30%
    09:00 +13°C° 0 mm 2 mps 675 mmHg 25%
    10:00 +14°C° 0 mm 2 mps 675 mmHg 23%
    11:00 +15°C° 0 mm 2 mps 675 mmHg 22%
    12:00 +16°C° 0 mm 2 mps 675 mmHg 20%
    13:00 +16°C° 0 mm 2 mps 675 mmHg 21%
    14:00 +16°C° 0 mm 2 mps 674 mmHg 21%
    15:00 +16°C° 0 mm 2 mps 674 mmHg 21%
    16:00 +14°C° 0 mm 2 mps 674 mmHg 26%
    17:00 +12°C° 0 mm 1 mps 673 mmHg 31%
    18:00 +10°C° 0 mm 1 mps 673 mmHg 36%
    19:00 +10°C° 0 mm 1 mps 673 mmHg 36%
    20:00 +9°C° 0 mm 1 mps 673 mmHg 36%
    21:00 +9°C° 0 mm 1 mps 673 mmHg 37%
    22:00 +9°C° 0 mm 1 mps 673 mmHg 37%
    23:00 +8°C° 0 mm 1 mps 672 mmHg 38%

    22 November, Wednesday

    Time Temperature Precipitation Wind Pressure Humidity
    00:00 +8°C° 0 mm 1 mps 672 mmHg 38%
    01:00 +8°C° 0 mm 1 mps 672 mmHg 39%
    02:00 +7°C° 0 mm 1 mps 672 mmHg 39%
    03:00 +7°C° 0 mm 1 mps 671 mmHg 39%
    04:00 +6°C° 0 mm 1 mps 671 mmHg 39%
    05:00 +6°C° 0 mm 1 mps 671 mmHg 38%
    06:00 +6°C° 0 mm 1 mps 671 mmHg 38%
    07:00 +8°C° 0 mm 1 mps 672 mmHg 33%
    08:00 +10°C° 0 mm 1 mps 673 mmHg 28%
    09:00 +13°C° 0 mm 1 mps 673 mmHg 23%
    10:00 +14°C° 0 mm 1 mps 673 mmHg 22%
    11:00 +14°C° 0 mm 2 mps 673 mmHg 20%
    12:00 +15°C° 0 mm 2 mps 673 mmHg 19%
    13:00 +15°C° 0 mm 2 mps 673 mmHg 19%
    14:00 +15°C° 0 mm 2 mps 673 mmHg 20%
    15:00 +15°C° 0 mm 1 mps 673 mmHg 20%
    16:00 +14°C° 0 mm 1 mps 672 mmHg 25%
    17:00 +12°C° 0 mm 1 mps 672 mmHg 29%
    18:00 +10°C° 0 mm 1 mps 672 mmHg 34%
    19:00 +10°C° 0 mm 1 mps 672 mmHg 35%
    20:00 +9°C° 0 mm 1 mps 672 mmHg 35%
    21:00 +9°C° 0 mm 1 mps 673 mmHg 36%
    22:00 +8°C° 0 mm 1 mps 672 mmHg 37%
    23:00 +8°C° 0 mm 1 mps 672 mmHg 38%

    23 November, Thursday

    Time Temperature Precipitation Wind Pressure Humidity
    00:00 +8°C° 0 mm 1 mps 672 mmHg 38%
    01:00 +7°C° 0 mm 1 mps 672 mmHg 40%
    02:00 +7°C° 0 mm 1 mps 672 mmHg 41%
    03:00 +6°C° 0 mm 1 mps 671 mmHg 42%
    04:00 +6°C° 0 mm 1 mps 672 mmHg 42%
    05:00 +6°C° 0 mm 1 mps 672 mmHg 43%
    06:00 +6°C° 0 mm 1 mps 672 mmHg 43%
    07:00 +8°C° 0 mm 1 mps 673 mmHg 38%
    08:00 +10°C° 0 mm 1 mps 674 mmHg 34%
    09:00 +12°C° 0 mm 1 mps 675 mmHg 29%
    10:00 +13°C° 0 mm 1 mps 675 mmHg 28%
    11:00 +14°C° 0 mm 2 mps 675 mmHg 26%
    12:00 +15°C° 0 mm 2 mps 675 mmHg 25%
    13:00 +15°C° 0 mm 2 mps 675 mmHg 26%
    14:00 +15°C° 0 mm 2 mps 675 mmHg 26%
    15:00 +15°C° 0 mm 1 mps 675 mmHg 27%
    16:00 +14°C° 0 mm 1 mps 674 mmHg 32%
    17:00 +12°C° 0 mm 1 mps 674 mmHg 37%
    18:00 +10°C° 0 mm 1 mps 674 mmHg 42%
    19:00 +10°C° 0 mm 1 mps 674 mmHg 44%
    20:00 +10°C° 0 mm 1 mps 674 mmHg 46%
    21:00 +9°C° 0 mm 1 mps 674 mmHg 47%
    22:00 +9°C° 0 mm 1 mps 674 mmHg 49%
    23:00 +9°C° 0 mm 1 mps 674 mmHg 51%

    24 November, Friday

    Time Temperature Precipitation Wind Pressure Humidity
    00:00 +8°C° 0 mm 1 mps 674 mmHg 52%
    01:00 +8°C° 0 mm 1 mps 674 mmHg 54%
    02:00 +8°C° 0 mm 1 mps 673 mmHg 55%
    03:00 +7°C° 0 mm 1 mps 673 mmHg 57%
    04:00 +7°C° 0 mm 1 mps 673 mmHg 58%
    05:00 +7°C° 0 mm 1 mps 673 mmHg 60%
    06:00 +6°C° 0 mm 1 mps 673 mmHg 62%
    07:00 +8°C° 0 mm 1 mps 674 mmHg 56%
    08:00 +10°C° 0 mm 1 mps 675 mmHg 50%
    09:00 +12°C° 0 mm 1 mps 676 mmHg 44%
    10:00 +13°C° 0 mm 1 mps 676 mmHg 41%
    11:00 +14°C° 0 mm 2 mps 676 mmHg 38%
    12:00 +15°C° 0 mm 2 mps 676 mmHg 35%
    13:00 +15°C° 0 mm 2 mps 675 mmHg 35%
    14:00 +15°C° 0 mm 1 mps 675 mmHg 35%
    15:00 +15°C° 0 mm 1 mps 675 mmHg 35%
    16:00 +14°C° 0 mm 1 mps 675 mmHg 41%
    17:00 +12°C° 0 mm 1 mps 674 mmHg 47%
    18:00 +11°C° 0 mm 1 mps 674 mmHg 53%
    19:00 +10°C° 0 mm 1 mps 674 mmHg 56%
    20:00 +10°C° 0 mm 1 mps 674 mmHg 58%
    21:00 +10°C° 0 mm 1 mps 675 mmHg 61%
    22:00 +9°C° 0 mm 2 mps 674 mmHg 64%
    23:00 +8°C° 0 mm 2 mps 674 mmHg 67%
    Show more